Weather History for Alturas, CA

Change the Weather History Date:

Tuesday, March 25, 2014

  Actual Average Record
Temperature  
Mean Temperature 37 °F 39 °F  
Max Temperature 51 °F 53 °F 79 °F (1934)
Min Temperature 22 °F 25 °F 4 °F (1927)
Degree Days  
Heating Degree Days 28 26  
Month to date heating degree days 589 673  
Since 1 July heating degree days 5354 5540  
Cooling Degree Days 0 0  
Month to date cooling degree days 0 0  
Year to date cooling degree days 0 0  
Moisture  
Dew Point 25 °F    
Average Humidity 58    
Maximum Humidity 92    
Minimum Humidity 24    
Precipitation  
Precipitation 0.06 in 0.06 in 1.14 in (1993)
Month to date precipitation 1.31 1.19  
Year to date precipitation 2.91 4.29  
Sea Level Pressure  
Sea Level Pressure 29.83 in    
Wind  
Wind Speed 10 mph (SW)    
Max Wind Speed 28 mph    
Max Gust Speed 35 mph    
Visibility 10 miles    
Events Rain , Snow    
T = Trace of Precipitation, MM = Missing Value Source: NWS Daily Summary

Daily Weather History Graph

Daily Weather History Graph

Search for Another Location

Airport:

Trip Planner

Search our weather history database for the weather conditions in past years. The results will help you decide how hot, cold, wet, or windy it might be!

Date:

Astronomy

Mar. 25, 2014 Rise Set
Actual Time 6:56 AM PDT 7:20 PM PDT
Civil Twilight 6:29 AM PDT 7:47 PM PDT
Nautical Twilight 5:56 AM PDT 8:20 PM PDT
Astronomical Twilight 5:23 AM PDT 8:53 PM PDT
Moon 3:26 AM PDT (3/25) 1:53 PM PDT (3/25)
Length of Visible Light 13h 18m
Length of Day
12h 23m
Waning Crescent, 31% of the Moon is Illuminated
Mar 25
Waning Crescent
Mar 30
New
Apr 7
First Quarter
Apr 15
Full
Apr 22
Last Quarter

Hourly Weather History & Observations

Time (PDT) Temp. Windchill Dew Point Humidity Pressure Visibility Wind Dir Wind Speed Gust Speed Precip Events Conditions
12:55 AM 30.9 °F - 12.0 °F 46% 29.99 in 10.0 mi Calm Calm - N/A   Clear
1:55 AM 30.9 °F - 14.0 °F 50% 29.96 in 8.0 mi Calm Calm - N/A   Clear
2:55 AM 28.0 °F - 14.0 °F 56% 29.95 in 10.0 mi Calm Calm - N/A   Clear
3:55 AM 25.0 °F 18.1 °F 12.9 °F 60% 29.93 in 9.0 mi East 5.8 mph - N/A   Clear
4:55 AM 26.1 °F 20.5 °F 14.0 °F 60% 29.90 in 10.0 mi East 4.6 mph - N/A   Clear
5:55 AM 25.0 °F 17.1 °F 15.1 °F 66% 29.88 in 10.0 mi SSE 6.9 mph - N/A   Clear
6:55 AM 46.0 °F 42.5 °F 15.1 °F 29% 29.82 in 10.0 mi South 6.9 mph - N/A   Clear
7:55 AM 48.0 °F - 14.0 °F 26% 29.81 in 10.0 mi South 16.1 mph 24.2 mph N/A   Clear
8:55 AM 48.9 °F - 14.0 °F 25% 29.81 in 10.0 mi South 15.0 mph 25.3 mph N/A   Clear
9:55 AM 51.1 °F - 15.1 °F 24% 29.81 in 10.0 mi South 17.3 mph - N/A   Clear
10:55 AM 48.9 °F - 15.1 °F 26% 29.86 in 10.0 mi West 23.0 mph 31.1 mph N/A   Clear
11:02 AM 48.0 °F - 18.0 °F 30% 29.88 in 10.0 mi West 24.2 mph 34.5 mph N/A   Clear
11:55 AM 48.0 °F - 19.9 °F 33% 29.88 in 10.0 mi West 19.6 mph - N/A   Overcast
12:55 PM 46.0 °F 37.0 °F 25.0 °F 44% 29.89 in 10.0 mi WSW 27.6 mph 33.4 mph N/A   Overcast
1:55 PM 42.1 °F 33.6 °F 33.1 °F 70% 29.88 in 10.0 mi South 18.4 mph 26.5 mph 0.00 in   Overcast
2:55 PM 44.1 °F 37.4 °F 36.0 °F 73% 29.87 in 10.0 mi SSW 13.8 mph - 0.00 in   Overcast
3:25 PM 44.1 °F 39.5 °F 34.0 °F 68% 29.85 in 10.0 mi SW 8.1 mph - N/A   Overcast
3:55 PM 45.0 °F 38.9 °F 35.1 °F 68% 29.86 in 10.0 mi WSW 12.7 mph - N/A   Overcast
4:08 PM 46.9 °F - 34.0 °F 61% 29.82 in 10.0 mi SW 11.5 mph - N/A   Scattered Clouds
4:55 PM 46.9 °F - 32.0 °F 56% 29.81 in 10.0 mi SW 13.8 mph - N/A   Scattered Clouds
5:55 PM 45.0 °F 38.9 °F 34.0 °F 65% 29.80 in 10.0 mi West 12.7 mph 21.9 mph 0.00 in Rain Light Rain
6:55 PM 42.1 °F - 37.0 °F 82% 29.75 in 10.0 mi Calm Calm - 0.00 in   Partly Cloudy
8:55 PM 37.9 °F 30.5 °F 35.1 °F 89% 29.73 in 9.0 mi West 11.5 mph - 0.00 in Rain Light Rain
9:48 PM 36.0 °F 30.3 °F 34.0 °F 93% 29.75 in 10.0 mi West 6.9 mph - 0.04 in   Overcast
9:55 PM 36.0 °F 28.5 °F 33.1 °F 89% 29.73 in 10.0 mi WSW 10.4 mph - 0.04 in Rain Light Rain
10:12 PM 34.0 °F 27.2 °F 32.0 °F 92% 29.75 in 9.0 mi West 8.1 mph - 0.01 in Snow Light Snow
10:55 PM 35.1 °F 27.9 °F 33.1 °F 92% 29.73 in 10.0 mi West 9.2 mph - 0.02 in   Overcast
11:24 PM 35.1 °F 30.1 °F 33.1 °F 92% 29.74 in 10.0 mi South 5.8 mph - 0.00 in Rain Light Rain
11:52 PM 35.6 °F 32.8 °F 33.8 °F 93% 29.75 in 10.0 mi West 3.5 mph - 0.00 in   Overcast
11:55 PM 35.1 °F 32.2 °F 33.1 °F 92% 29.73 in 10.0 mi WSW 3.5 mph - 0.00 in   Overcast